Torna al catalogo

STARLINK-5352

AttivoComunicazioniVLEO
NORAD 56426·PAYLOAD·🇺🇸 United States

Lanciato May 4, 2023 da Cape Canaveral Space Force Station

Loading…

Prossimi Passaggi (prossime 24 ore)

TLE

AggiornatoSource: CelesTrak SupGP

Epoca: Sep 14, 2026, 14:37 UTC

1 56426C 23061BE  26257.60951389 -.00037743  00000+0 -13672-2 0  2571
2 56426  43.0002 192.9562 0001425 249.5605 289.0560 15.27593121    18

Traccia STARLINK-5352 in tempo reale con AllMySat

Download on the App Store